Location: Il Ritiro
(43.4167°N, 13.1333°E)
Time: 01:41:03
(UTC+00:00)

SPOT 1/Viking Rocket - Pass Details

Date: 05 July 2020
Orbit: 778 x 793 km, 98.5° (Epoch: 11 August)

Event Time Altitude Azimuth Distance (km) Brightness Sun altitude
Exits shadow 19:51:15 12° 140° (SE) 2,203 5.2 -9.4°
Maximum altitude 19:55:47 46° 70° (ENE) 1,050 4.0 -10.0°
Drops below altitude 10° 20:00:42 10° 358° (N) 2,349 6.8 -10.6°
Sets 20:03:06 0° 353° (N) 3,284 7.7 -10.9°
